Location: Fabian
(42.8000°N, 0.2333°E)
Time: 16:38:40
(UTC+00:00)

Daily predictions for brighter satellites

Satellite Brightness Start Highest point End
(mag) Time Altitude Azimuth Time Altitude Azimuth Time Altitude Azimuth
NOAA 12 4.1 17:22:22 10° SSE 17:27:35 90° WNW 17:32:51 10° NNW
Landsat 5 3.7 17:24:04 10° N 17:28:00 66° WNW 17:31:48 10° SSW
Cosmos 1726 Rocket 4.3 17:24:11 10° NNE 17:28:05 30° ENE 17:31:57 10° SE
Cosmos 2263 Rocket 2.4 17:30:59 10° SSW 17:36:40 80° WNW 17:42:22 10° NNE
CORIOLIS 4.2 17:32:09 10° SSE 17:37:34 88° WSW 17:43:00 10° NNW
CZ-4C R/B 4.3 17:36:13 10° N 17:39:10 36° WNW 17:42:05 10° SW
NOAA 11 4.2 17:33:46 10° SSE 17:39:16 86° ENE 17:44:48 10° NNW
Cosmos 2279 Rocket 4.1 17:34:09 10° N 17:40:19 56° ENE 17:46:26 10° SSE
SMAP 3.6 17:37:11 10° S 17:41:48 65° WSW 17:46:27 10° NNW
BREEZE-M DEB (TANK) 2.1 17:38:48 10° WNW 17:42:43 88° NNE 17:44:58 10° ESE
USA 234 4.5 17:37:50 10° ENE 17:43:01 26° N 17:48:13 10° NW
COSMOS 2455 3.3 17:37:38 10° S 17:43:18 44° ESE 17:48:59 10° NE
Cosmos 1455 3.8 17:41:31 10° NE 17:43:38 14° ENE 17:45:44 10° ESE
COSMO-SKYMED 1 2.9 17:41:12 10° NNE 17:45:21 43° E 17:49:29 10° S
Cosmos 1939 Rocket 3.0 17:41:38 10° SSE 17:45:41 57° ENE 17:49:44 10° N
Cosmos 1300 2.6 17:43:38 10° N 17:47:29 80° E 17:51:17 10° S
Okean-O 3.6 17:45:39 10° ESE 17:49:14 25° ENE 17:52:50 10° NNE
Cosmos 1689 Rocket 3.7 17:50:14 15° E 17:50:33 15° E 17:52:20 10° SE
Cosmos 1538 Rocket 4.4 17:46:46 10° N 17:51:35 37° ENE 17:56:21 10° SE
Cosmos 1634 Rocket 4.3 17:46:29 10° N 17:52:43 75° W 17:58:57 10° S
Okean O Rocket 2.2 17:49:25 10° S 17:53:48 64° WSW 17:58:14 10° NNW
Cosmos 1777 Rocket 4.0 17:50:16 10° S 17:55:26 63° ESE 18:00:40 10° NNE
Aureole 2 Rocket 3.4 17:53:10 10° SSE 17:55:30 21° ESE 17:56:23 19° ENE
ARGOS 4.2 17:51:38 10° ESE 17:55:40 22° ENE 17:59:43 10° NNE
ATLAS 3B R/B 3.4 17:48:57 10° NW 17:55:51 63° WSW 18:03:01 10° SSE
Meteor 1-24 Rocket 3.6 17:50:35 10° S 17:55:58 90° W 18:01:18 10° N
CZ-4 R/B 2.2 17:52:26 10° SE 17:56:01 29° ENE 17:59:32 10° N
MOS 1 Rocket 3.4 17:54:30 10° NNE 17:58:38 44° E 18:02:43 10° S
Cosmos 1943 3.4 17:53:10 10° NNW 17:58:50 76° WSW 18:04:27 10° SSE
Feng Yun 1-1 Rocket 4.1 17:54:54 10° SSE 18:00:15 69° ENE 18:05:45 10° N
Cosmos 1315 Rocket 3.2 17:57:56 10° NNW 18:01:54 68° W 18:05:52 10° S
CZ-2C R/B 4.0 18:04:57 17° ENE 18:06:11 18° E 18:09:58 10° SE
Cosmos 1844 4.5 18:01:35 10° SSE 18:06:26 31° ESE 18:09:55 17° NE
ERS-2 2.4 18:03:34 10° NNE 18:07:05 44° E 18:10:33 10° S
SKYMED 3 4.5 18:05:02 10° NNE 18:09:23 81° E 18:13:44 10° S
BREEZE-M DEB (TANK) 3.6 18:08:57 10° NW 18:10:40 18° N 18:11:07 17° NNE
TELKOM 3 3.1 18:10:36 10° SW 18:12:56 60° SSE 18:13:31 42° E
YAOGAN 1 2.8 18:13:11 10° SE 18:17:16 43° ENE 18:21:23 10° N
Cosmos 1892 Rocket 3.5 18:13:49 10° S 18:18:10 87° W 18:22:32 10° N
Cosmos 1606 Rocket 4.2 18:14:15 10° NNW 18:18:34 58° W 18:22:53 10° S
Cosmos 1092 Rocket 4.5 18:13:49 10° SSE 18:19:19 35° E 18:24:48 10° NNE
H-2A R/B 4.0 18:15:44 10° N 18:19:37 30° WNW 18:23:26 10° SW
IRS-1C Rocket 4.0 18:15:12 10° SSE 18:20:26 77° ENE 18:25:42 10° NNW
Meteor 1-21 Rocket 4.4 18:18:13 10° SSE 18:23:25 44° E 18:28:38 10° NNE
X-37B 1.3 18:25:35 10° SW 18:28:33 37° SSE 18:28:57 36° SE
CZ-4C R/B 4.2 18:24:42 10° WNW 18:28:34 19° NNW 18:32:55 10° NNE
ISS -3.5 18:26:45 10° SW 18:30:01 52° SE 18:30:32 46° ESE
Cosmos 1844 Rocket 2.7 18:25:56 10° S 18:31:30 62° ESE 18:35:26 20° NE
SKYMED 2 4.2 18:29:08 10° N 18:33:24 55° WNW 18:37:38 10° SSW
Lacrosse 5 2.3 18:29:19 10° NW 18:34:07 42° NE 18:35:29 34° ENE
Helios 1A Rocket 2.9 18:31:59 10° SSE 18:36:01 55° ENE 18:40:05 10° N
Nadezhda 4 Rocket 3.9 18:31:21 10° S 18:37:37 80° E 18:43:50 10° N
SJ 16-02 1.2 18:34:02 10° S 18:38:23 66° ESE 18:40:20 31° NNE
CZ-2C R/B 3.4 18:33:30 10° S 18:38:41 71° WSW 18:44:12 10° NNW
CZ-2D R/B 4.3 18:36:52 10° S 18:40:35 47° W 18:44:20 10° NNW
DMSP B5D1-3 4.5 18:36:28 13° NNE 18:40:53 59° E 18:45:54 10° S
Cosmos 44 4.2 18:38:06 10° S 18:41:32 28° SE 18:41:32 28° SE
H-2A R/B 1.8 18:42:18 10° SSE 18:47:14 83° ENE 18:52:21 10° NNW
Cosmos 2058 Rocket 3.7 18:43:26 10° NNW 18:47:52 59° W 18:52:18 10° S
USA 267 3.5 18:48:30 34° E 18:50:55 49° SE 18:57:11 10° SSW
Cosmos 923 Rocket 4.0 18:48:10 10° NNW 18:53:28 58° ENE 18:55:17 38° SE
CSL-04 Rocket 3.5 18:49:45 10° SSE 18:55:04 66° ENE 19:00:30 10° N
Meteor 2-1 Rocket 4.1 18:50:01 10° N 18:55:38 89° WSW 19:01:09 10° S
Okean 1-7 Rocket 4.4 18:51:27 10° SSW 18:55:53 53° W 19:00:23 10° N
CZ-4B R/B 4.1 18:53:49 10° NNW 18:56:15 19° WNW 18:58:38 10° WSW
SAR-Lupe-4 4.4 18:56:42 25° N 18:58:31 49° WNW 19:01:58 10° SSW
Meteor 2-10 Rocket 4.4 18:53:26 10° NNW 18:58:47 52° W 19:03:53 10° S
Cosmos 1898 Rocket 4.0 18:54:35 10° S 18:58:42 40° SE 18:58:42 40° SE
Cosmos 1680 Rocket 3.7 18:56:06 10° N 19:00:39 48° NE 19:00:39 48° NE
Cosmos 1818 3.6 18:57:46 10° SW 19:03:11 78° NW 19:05:20 38° NNE
ATLAS 5 CENTAUR R/B 3.9 19:01:06 10° WNW 19:03:45 16° NNW 19:06:00 12° N
Cosmos 2098 Rocket 4.4 18:58:17 10° SSE 19:04:55 53° E 19:12:05 10° NNE
Cosmos 158 Rocket 3.9 19:01:15 10° NNW 19:06:37 82° ENE 19:09:28 29° SSE
Cosmos 1626 Rocket 3.8 19:07:22 10° SSW 19:11:42 68° W 19:13:07 41° NNW
Cosmos 2026 Rocket 3.8 19:08:52 10° S 19:14:54 73° E 19:18:42 25° NNE
Cosmos 1703 4.4 19:13:12 10° SSW 19:15:41 37° SSW 19:15:41 37° SSW
Cosmos 1455 3.5 19:15:51 10° NNW 19:19:25 39° W 19:22:59 10° SSW
USA 234 3.7 19:24:50 42° NNE 19:24:58 42° NNE 19:31:02 10° NW
Okean-O 4.3 19:21:33 10° SSW 19:25:32 33° W 19:29:34 10° NNW
COSMOS 2455 4.2 19:23:52 10° WSW 19:29:20 35° NW 19:32:46 20° N
CZ-4 R/B 3.8 19:27:42 10° SSW 19:31:01 23° W 19:34:18 10° NW
Iridium 4 Rocket 3.8 19:25:20 10° N 19:31:02 73° W 19:36:18 10° S
ARGOS 3.8 19:30:20 10° S 19:35:32 53° W 19:40:48 10° NNW
CZ-2C R/B 3.0 19:46:27 61° NW 19:46:51 63° WNW 19:52:22 10° SSW
Lacrosse 5 3.9 20:12:22 10° WNW 20:14:43 25° WNW 20:14:43 25° WNW
SJ 16-02 4.2 20:15:10 10° W 20:17:23 14° WNW 20:17:23 14° WNW
NOSS 3-1 (C) 4.2 20:10:59 10° NW 20:17:37 71° NW 20:17:37 71° NW
USA 267 4.2 20:35:52 42° W 20:35:52 42° W 20:40:19 10° WSW
